Location: Unspecified
(0.0000°N, 0.0000°E)
Time: 10:34:02
(UTC+00:00)

Vanguard 2 - Pass Details

Date: 11 December 2017
Orbit: 553 x 2939 km, 32.9° (Epoch: 22 June)

Event Time Altitude Azimuth Distance (km) Brightness Sun altitude
Rises 14:12:24 0° 258° (WSW) 5,709 12.5 49.1°
Reaches altitude 10° 14:17:38 10° 270° (W) 4,248 12.0 48.1°
Maximum altitude 14:25:42 24° 319° (NW) 2,519 10.5 46.4°
Drops below altitude 10° 14:31:19 10° 11° (N) 2,847 10.2 45.3°
Sets 14:34:04 0° 26° (NNE) 3,512 10.5 44.7°
